User: anonymous   Login
Location: Unspecified
(0.0000°N, 0.0000°E)
Time: 12:48:40
(UTC+02:00)
Language:

Cosmos 1536 - Orbit

View from above orbital plane
View from above orbital plane
View from above satellite
View from above satellite

Ground track
Ground track

The orbit data is extracted from the following two-line orbital elements,

1 14699U 84013A   18114.84478759  .00000506  00000-0  33296-4 0  9990
2 14699  82.5291  27.7521 0014042  73.8677 286.4094 15.05277347859973
Epoch (UTC): 24 April 2018 20:16:29
Eccentricity: 0.0014042
inclination: 82.5291°
perigee height: 541 km
apogee height: 560 km
right ascension of ascending node: 27.7521°
argument of perigee: 73.8677°
revolutions per day: 15.05277347
mean anomaly at epoch: 286.4094°
orbit number at epoch: 85997

The dashed part of the orbit path shows where the satellite is in the earth's shadow,  

DLR